Flag for Sweden Weather past 2 weeks in Gothenburg, Sweden

Now
55 °F

Fog.


Feels Like: 55 °F
Forecast: 62 / 71 °F
Wind: No wind

Location: Gothenburg / Save

Current Time: Jul 29, 2014 at 4:42:31 AM

Latest Report: Jul 29, 2014 at 4:20 AM


Visibility: N/A

Pressure: 29.89 "Hg

Humidity: 100%

Dew point: 55 °F

Location of GothenburgLocation

Historic Weather in Gothenburg — Graph

°F

Gothenburg temperature yesterday

Maximum temperature yesterday: 73 °F (at 9:50 AM)
Minimum temperature yesterday: 61 °F (at 11:50 PM)
Average temperature yesterday: 69 °F

Past Weeks' High & Low Weather Summary

 TemperatureHumidityPressure
High86 °F (Jul 24, 1:50 PM)100% (Jul 14, 10:50 PM)30.30 "Hg (Jul 14, 10:50 PM)
Low48 °F (Jul 19, 4:50 AM)30% (Jul 23, 7:50 PM)29.59 "Hg (Jul 14, 3:20 AM)
Average68 °F71%30.04 "Hg
* Reported Jul 14 3:20 AM — Jul 29 3:20 AM, Gothenburg, Weather by CustomWeather, © 2014

Note: Actual official high and low records may vary slightly from our data, if they occured in-between our weather recording intervals... More about our weather records

Advertising

Gothenburg weather history for previous 24 hours

 ConditionsComfort  
Time TempWeatherWind HumidityBarometerVisibility
3:20 AM
Jul 29
57 °FFog.1 mph94%29.92 "HgN/A
2:50 AM57 °FClear.1 mph94%29.92 "Hg10 mi
2:20 AM59 °FClear.2 mph94%29.92 "Hg10 mi
1:50 AM59 °FClear.No wind94%29.92 "Hg10 mi
1:20 AM61 °FClear.1 mph94%29.92 "Hg10 mi
12:50 AM61 °FClear.2 mph94%29.92 "Hg10 mi
12:20 AM61 °FClear.1 mph100%29.92 "Hg10 mi
11:50 PM
Jul 28
61 °FClear.2 mph94%29.92 "Hg10 mi
10:50 PM66 °FClear.3 mph88%29.92 "Hg10 mi
10:20 PM66 °FSunny.5 mph88%29.92 "Hg10 mi
9:50 PM68 °FSunny.3 mph83%29.92 "Hg10 mi
8:50 PM70 °FSunny.5 mph78%29.92 "Hg10 mi
8:20 PM72 °FSunny.6 mph73%29.92 "Hg10 mi
7:58 PM72 °FSunny.7 mph73%29.92 "Hg10 mi
7:20 PM72 °FSunny.9 mph73%29.92 "Hg10 mi
6:58 PM72 °FSunny.12 mph73%29.92 "Hg10 mi
6:20 PM73 °FSunny.12 mph69%29.92 "Hg10 mi
5:55 PM73 °FSunny.10 mph69%29.92 "Hg10 mi
5:20 PM73 °FSunny.9 mph74%29.92 "Hg10 mi
4:50 PM73 °FSunny.10 mph74%29.95 "Hg10 mi
4:20 PM73 °FSunny.9 mph74%29.95 "Hg10 mi
3:50 PM73 °FSunny.10 mph74%29.95 "Hg10 mi
3:20 PM73 °FSunny.10 mph69%29.95 "Hg10 mi
2:50 PM73 °FSunny.12 mph74%29.95 "Hg10 mi
2:26 PM73 °FSunny.13 mph69%29.95 "Hg10 mi
1:50 PM72 °FPassing clouds.10 mph78%29.95 "HgN/A
1:20 PM73 °FPassing clouds.9 mph74%29.95 "HgN/A
12:50 PM73 °FPassing clouds.10 mph74%29.95 "HgN/A
12:20 PM73 °FPassing clouds.9 mph69%29.95 "HgN/A
11:50 AM73 °FScattered clouds.9 mph74%29.95 "HgN/A
11:20 AM73 °FScattered clouds.6 mph74%29.95 "HgN/A
10:50 AM73 °FScattered clouds.5 mph65%29.95 "HgN/A
10:20 AM73 °FScattered clouds.3 mph69%29.95 "HgN/A
9:50 AM73 °FPassing clouds.1 mph69%29.95 "HgN/A
9:20 AM72 °FPassing clouds.3 mph73%29.95 "HgN/A
8:50 AM72 °FSunny.2 mph78%29.95 "Hg10 mi
8:20 AM70 °FSunny.2 mph83%29.95 "Hg10 mi
7:50 AM68 °FSunny.No wind88%29.95 "Hg10 mi
7:20 AM68 °FSunny.2 mph88%29.95 "Hg10 mi
6:50 AM66 °FSunny.2 mph88%29.95 "Hg10 mi
6:20 AM63 °FFog.No wind94%29.95 "Hg6 mi
5:50 AM63 °FFog.No wind94%29.95 "Hg4 mi
5:20 AM63 °FFog.1 mph94%29.95 "Hg3 mi
4:20 AM63 °FFog.No wind94%29.92 "Hg4 mi
Weather by CustomWeather, © 2014

See weather overviewHow to use our weather pages